Torna al catalogo

NEONSAT-1A

AttivoScienzaSSO
NORAD 67614·PAYLOAD·🇰🇷 South Korea

Lanciato Jan 30, 2026 da Rocket Lab Launch Complex 1

Loading…

Prossimi Passaggi (prossime 24 ore)

TLE

AggiornatoSource: Space-Track

Epoca: Sep 14, 2026, 13:52 UTC

1 67614U 26019A   26257.57838701  .00001797  00000-0  11796-3 0  9994
2 67614  97.4358  14.8679 0011584 242.2419 117.7636 15.08830382 34297

Traccia NEONSAT-1A in tempo reale con AllMySat

Download on the App Store